www.pogodaiklimat.ru
Время
и дата
01:52 14.07
02:52 14.07
03:52 14.07
04:52 14.07
05:52 14.07
06:52 14.07
07:52 14.07
08:52 14.07
09:52 14.07
10:52 14.07
11:52 14.07
12:52 14.07
13:52 14.07
14:52 14.07
15:52 14.07
16:52 14.07
17:52 14.07
18:52 14.07
19:52 14.07
20:52 14.07
21:52 14.07
22:52 14.07
23:52 14.07
00:52 15.07
01:52 15.07
02:52 15.07
03:52 15.07
04:52 15.07
05:52 15.07
06:52 15.07
07:52 15.07
08:52 15.07
09:52 15.07
10:52 15.07
11:52 15.07
12:52 15.07
13:20 15.07
13:52 15.07
14:52 15.07
15:52 15.07
16:48 15.07
16:52 15.07
16:59 15.07
17:23 15.07
17:52 15.07
18:52 15.07
19:52 15.07
20:52 15.07
Ветер
(напр.,м/с)
Видим. Явления Облачность Т
(С)
Тd
(С)
f
(%)
Тe
(С)
Тes
(С)
Комфортность P
(гПа)
Po
(гПа)
Тmin
(С)
Tmax
(С)
R
(мм)
R24
(мм)
S
(см)
Ю 3 16 км 2/0 3000 m
[Ac]
+26.7 +23.3 82 +36 +36 очень
душно
1017.9 1017.5
Ю 3 16 км 5/0 3000 m
[Ac]
+26.7 +23.9 85 +37 +37 очень
душно
1017.6 1017.1
штиль 0 16 км 2/0 4500 m
[Ac]
+26.7 +23.9 85 +37 +37 очень
душно
1017.8 1017.5
Ю 2 16 км 2/0 3000 m
[Ac Ci]
+26.1 +23.9 88 +36 +36 очень
душно
1017.6 1017.1
ЮВ 2 16 км 2/0 2700 m
[Ac]
+26.7 +24.4 87 +37 +37 очень
душно
1017.7 1017.1
Ю 4 16 км 2/0 3000 m
[Ac Ci]
+27.8 +24.4 82 +39 +40 очень
душно
1017.7 1017.5 +26.1 +27.8 1.3
Ю 4 16 км 2/0 3000 m
[Ac Ci]
+29.4 +23.9 72 +40 +42 очень
душно
1017.8 1017.5
Ю 3 16 км 5/0 2700 m
[Ac]
+31.7 +23.3 61 +42 +46 опасность
перегрева
1017.8 1017.5
Ю 4 16 км 2/0 2700 m
[Ac]
+33.3 +22.8 54 +43 +50 опасность
перегрева
1017.4 1016.8
ЮВ 2 16 км 2/0 2250 m
[Ac]
+33.9 +22.2 51 +43 +57 опасность
перегрева
1017.1 1016.5
Ю 4 16 км 5/5 1800 м +36.1 +21.7 43 +44 +50 опасность
перегрева
1016.3 1015.8
Ю 5 16 км 5/5 1950 м +35.0 +21.7 46 +43 +48 опасность
перегрева
1015.7 1015.4 +27.8 +36.7
З 5
{9}
16 км 5/5 1950 м +37.2 +18.3 33 +41 +46 опасность
перегрева
1014.9 1014.4
нст 2
{8}
16 км 5/0 2100 m
[Ac]
+36.7 +19.4 36 +42 +53 опасность
перегрева
1014.1 1013.7
ЮЗ 4
{9}
16 км 2/0 2250 m
[Ac Ci]
+37.2 +18.3 33 +41 +49 опасность
перегрева
1013.6 1013.1
Ю 4 16 км 2/0 2400 m
[Ac Ci]
+36.7 +17.2 32 +40 +45 очень
душно
1013.7 1013.1
ЮЗ 5 16 км 2/0 2400 m
[Ac Ci]
+36.1 +16.1 31 +38 +40 очень
душно
1013.6 1013.1
ЮЗ 5 16 км 2/0 7500 m
[Ci]
+35.0 +17.2 35 +38 +39 очень
душно
1013.6 1013.1 +35.0 +38.3
ЮВ 2 16 км 2/0 3000 m
[Ac Ci]
+31.7 +22.8 59 +41 +42 опасность
перегрева
1013.7 1013.4
ЮВ 3 16 км 2/0 3000 m
[Ac Ci]
+31.1 +22.8 61 +41 +41 опасность
перегрева
1013.6 1013.1
Ю 3 16 км 2/0 7500 m
[Ci]
+30.6 +22.2 61 +40 +40 очень
душно
1013.0 1012.7
Ю 4 16 км 8/0 3000 m
[Ac Ci]
+30.6 +22.8 63 +40 +40 очень
душно
1013.2 1012.7
Ю 5 16 км 8/0 3000 m
[Ac Ci]
+30.0 +23.3 67 +40 +40 очень
душно
1012.7 1012.4
Ю 4 16 км 8/0 3000 m
[Ac Ci]
+28.9 +22.8 70 +38 +38 очень
душно
1012.5 1012.1 +28.9 +35.0
Ю 4 16 км 8/0 7500 m
[Ci]
+28.9 +22.8 70 +38 +38 очень
душно
1012.2 1011.7
ЮЗ 4 16 км 8/0 2700 m
[Ac Ci]
+28.3 +21.7 67 +36 +36 очень
душно
1012.4 1012.1
ЮЗ 3 16 км 5/0 2550 m
[Ac Ci]
+27.2 +21.1 69 +34 +34 очень
душно
1012.7 1012.4
З 3 16 км 8/0 2550 m
[Ac Ci]
+27.8 +21.1 67 +35 +35 очень
душно
1013.4 1013.1
СЗ 3 16 км 2/0 2850 m
[Ac]
+28.9 +18.3 53 +34 +34 очень
душно
1013.8 1013.4
С 4 16 км 2/0 4500 m
[Ac]
+30.6 +18.3 48 +35 +36 очень
душно
1014.1 1013.7 +27.2 +30.6
С 4 16 км 2/0 4500 m
[Ac]
+31.7 +18.9 47 +37 +39 очень
душно
1014.3 1013.7
С 6
{8}
16 км 2/0 7500 m
[Ci]
+33.9 +19.4 43 +40 +42 очень
душно
1014.1 1013.7
СЗ 6
{10}
16 км 2/0 7500 m
[Ci]
+35.0 +18.9 39 +40 +44 очень
душно
1013.8 1013.4
С 4 16 км 2/0 7500 m
[Ci]
+36.1 +19.4 38 +41 +52 опасность
перегрева
1013.5 1013.1
В 4 16 км 2/2 1800 m
[Ci]
+36.7 +20.0 38 +42 +53 опасность
перегрева
1012.8 1012.4
ЮВ 2 16 км 2/2 1950 m
[Ci]
+35.6 +19.4 39 +41 +57 опасность
перегрева
1012.1 1011.7 +30.0 +36.7
З 5
{10}
16 км 2/0 2100 m
[Ac Ci]
+38.3 +19.4 33 +43 +52 опасность
перегрева
1011.4
З 5 16 км 2/0 2100 m
[Ac Ci]
+38.3 +18.3 31 +42 +51 опасность
перегрева
1011.7 1011.4
Ю 6 16 км 5/0 2100 m
[Ac Ci]
+37.2 +21.1 39 +44 +48 опасность
перегрева
1010.7 1010.4
Ю 5
{10}
16 км 8/5 1950 m
[Ci Cb]
+36.7 +20.6 39 +43 +46 опасность
перегрева
1009.9 1009.7
СЗ 9
{15}
16 км гроза 8/2 1950 m
[Ac Ci Cb]
+33.0 +19.0 44 +38 +39 очень
душно
1011.0
СЗ 7
{15}
16 км гроза 8/2 1950 m
[Ac Ci Cb]
+31.7 +18.3 45 +36 +38 очень
душно
1011.4 1011.0
С 8
{13}
16 км гроза 8/0 2100 m
[Ac Ci]
+31.1 +18.9 48 +36 +37 очень
душно
1011.0
С 2 16 км 8/0 2100 m
[Ac Ci Cb]
+31.7 +19.4 48 +37 +39 очень
душно
1010.0
Ю 3 16 км 8/0 2250 m
[Ac Ci]
+31.7 +21.1 53 +39 +41 очень
душно
1010.1 1009.7
ЮЗ 3 16 км 8/0 2400 m
[Ac Ci]
+32.8 +19.4 45 +38 +39 очень
душно
1009.7 1009.3 +30.6 +38.9
Ю 4 16 км 5/0 2550 m
[Ac Ci]
+32.2 +18.3 44 +37 +37 очень
душно
1010.2 1010.0
ЮЗ 3 16 км 5/0 2400 m
[Ac Ci]
+31.1 +18.3 46 +36 +36 очень
душно
1010.7 1010.4
Местоположение метеостанции Reagan National Airport: широта 38.8483 долгота -77.0342 высота над уровнем моря 3 м.
В архиве по умолчанию представлена погода в Вашингтоне за последние 1-2 суток. Обновление информации о фактической погоде в базе происходит ежечасно! Архивные данные за месяц целиком и за предыдущие месяцы Вы можете получить, выбрав интересующий диапазон дат из раскрывающегося списка и нажав кнопку "Ввод!".
Внимание! Архив погоды МЕТАР в базе сайта по станциям, не включенным в климатический монитор, хранится не более 60 дней. Нет смысла пытаться выбрать более раннюю дату.
*Определитесь, кто Вы:
Внимание! Время в таблицах - местное (без учета летнего времени). Для получения всемирного времени необходимо вычесть поправку, которая равна -5 ч.
Смотрите также архив погоды в соседних городах и на ближайших метеорологических станциях:
Партнеры нашего сайта:   пск портал двери.    
Пояснения к столбцам:
  • Ветер - указаны скорость ветра в м/с - средняя за 10 мин, порывы в срок и между сроками (в фигурных скобках) и направление, откуда дует ветер: С - северный,
  • СВ - северо-восточный, В - восточный, ЮВ - юго-восточный, Ю - южный, ЮЗ - юго-западный, З - западный, СЗ - северо-западный.
  • Видимость - горизонтальная дальность видимости в метрах или километрах. При видимости от 1 до 10 км при отсутствии осадков обычно наблюдается дымка, при ухудшении видимости до 1 км и менее - туман. В сухую погоду видимость может ухудшаться дымом, пылью или мглою.
  • Явления - указаны атмосферные явления, наблюдавшиеся в срок или в последний час перед сроком; фигурными скобками обозначены явления, наблюдавшиеся между сроками (за 1-3 часа до срока); квадратными скобками обозначены град или гололедные отложения с указанием их диаметра в мм.
  • Облачность - указаны через наклонную черту общая и нижняя облачность в баллах и высота нижней границы облаков в метрах; квадратными скобками обозначены формы облаков: Ci - перистые, Cs - перисто-слоистые, Cc - перисто-кучевые, Ac - высококучевые, As - высокослоистые, Sc - слоисто-кучевые, Ns - слоисто-дождевые, Cu - кучевые, Cb - кучево-дождевые. Подробнее классификацию облаков см. в Атласе облаков (PDF).
  • T - Температура воздуха - температура, измеренная на высоте 2 м над землей.
  • Td - Температура точки росы - температура, при понижении до которой содержащийся в воздухе водяной пар достигнет насыщения.
  • f - Относительная влажность воздуха - влажноcть воздуха, измеренная на высоте 2 м над землей.
  • Te - Эффективная температура - температура, которую ощущает одетый по сезону человек в тени. Характеристика душности погоды. При расчете учитывается влияние влажности воздуха и скорости ветра на теплоощущения человека.
  • Tes - Эффективная температура на солнце - температура, которую ощущает человек, с поправкой на солнечный нагрев. Характеристика знойности погоды. Зависит от высоты солнца над горизонтом, облачности и скорости ветра. Ночью, в пасмурную погоду, а также при ветре 12 м/с и более поправка равна нулю.
  • P - Атмосферное давление - приведенное к уровню моря атмосферное давление.
  • Po - Атмосферное давление - измеренное на уровне метеостанции атмосферное давление.
  • Tmin - Минимальная температура - минимум температуры воздуха на высоте 2 м над землей.
  • Tmax - Максимальная температура - максимум температуры воздуха на высоте 2 м над землей.
  • R - Количество осадков - Количество выпавших осадков за период времени, мм. При наведении курсора мыши на число - период времени, за который выпало указанное количество осадков.
  • R24 - Количество осадков - Количество выпавших осадков за 24 часа, мм.
  • S - Снежный покров - Высота снежного покрова, см. При наведении курсора мыши на число - состояние снежного покрова и степень покрытия местности в баллах.